113P/Spitaler (2001)

Japanese version
Home page
Total 6,336 html files since Dec. 4, 1995
Updated on May 27, 2001

---------------------------------------------------------------------

* Profile

* Orbital Elements

Epoch 2001 Feb. 20.0 TT = JDT 2451960.5  
T 2001 Feb. 25.86428 TT                                 Muraoka 
q   2.1271932            (2000.0)            P               Q
n   0.13903346     Peri.   50.06387     +0.43009967     -0.90242856
a   3.6902560      Node    14.52419     +0.79456112     +0.36512204
e   0.4235649      Incl.    5.77572     +0.42858709     +0.22871070
P   7.09
From 153 observations 1890-2000, mean residual 1".58.

* Finding Charts

* Magnitudes Graph

        m1 = 12.0 + 5 log d + 15.0 log r

---------------------------------------------------------------------

The orbital elements are calculated by Kenji Muraoka.
The charts are made with StellaNavigator Ver.2.0 for Windows (AstroArts / ASCII).
The magnitudes graphs are made with Comet for Windows.

---------------------------------------------------------------------

Copyright(C) 1995-2008 Seiichi Yoshida (comet@aerith.net). All rights reserved.